User: anonymous   Login
Location: Bittelbronn
(48.4454°N, 8.5870°E)
Time: 18:19:36
(UTC+00:00)
Language:

SL-27 R/B - Orbit

View from above orbital plane
View from above orbital plane
View from above satellite
View from above satellite

Ground track
Ground track

The orbit data is extracted from the following two-line orbital elements,

1 40354U 14084B   24200.19698195  .00087548  00000-0  45489-3 0  9994
2 40354  74.7207 141.8032 0017668 268.4027  91.5183 15.80403356539437
Epoch (UTC): 18 July 2024 04:43:39
Eccentricity: 0.0017668
inclination: 74.7207°
perigee height: 317 km
apogee height: 341 km
right ascension of ascending node: 141.8032°
argument of perigee: 268.4027°
revolutions per day: 15.80403356
mean anomaly at epoch: 91.5183°
orbit number at epoch: 53943

The dashed part of the orbit path shows where the satellite is in the earth's shadow,  

DLR